GTI1019 KDYS-SCEL

Flight info

Callsign GTI1019
Flight time N/A
Altitude 29000
Route ROOMY J17 SAT J25 BRO/N0495F280 J25 MAM/N0502F290 UT151 VER UJ34 IZT UL318 ALSAL UL203 BETIS/N0505F310 UL203 ARNEL UM542 AKTUK/N0498F330 UM542 ILMAR UL302 TOY UV208 EMBAL UV204 SIMOK SIMOK7B
Aircraft B744/H-SDE3FGHIM1M2RWXY/LB1

Departure

Time 2026-04-19 00:42
Airport Dyess Air Force Base (KDYS)

Arrival

Time N/A
Airport Comodoro Arturo Merino Benítez International Airport (SCEL)
Time Latitude Longitude Altitude Speed Heading
2026-04-19 00:33 32.43003 -99.85139 1782 ft 0 kts 259°
2026-04-19 00:34 32.42999 -99.85159 1783 ft 5 kts 259°
2026-04-19 00:34 32.42988 -99.85226 1783 ft 10 kts 259°
2026-04-19 00:34 32.42932 -99.85281 1783 ft 12 kts 176°
2026-04-19 00:35 32.42831 -99.85260 1783 ft 16 kts 169°
2026-04-19 00:35 32.42702 -99.85231 1784 ft 20 kts 168°
2026-04-19 00:35 32.42562 -99.85199 1784 ft 21 kts 169°
2026-04-19 00:35 32.42407 -99.85162 1783 ft 23 kts 168°
2026-04-19 00:36 32.42244 -99.85124 1784 ft 23 kts 169°
2026-04-19 00:36 32.42084 -99.85088 1786 ft 22 kts 168°
2026-04-19 00:36 32.41927 -99.85051 1786 ft 23 kts 168°
2026-04-19 00:36 32.41770 -99.85014 1787 ft 23 kts 169°
2026-04-19 00:37 32.41611 -99.84978 1787 ft 23 kts 169°
2026-04-19 00:37 32.41450 -99.84941 1787 ft 23 kts 168°
2026-04-19 00:37 32.41294 -99.84904 1788 ft 22 kts 168°
2026-04-19 00:37 32.41137 -99.84866 1787 ft 23 kts 169°
2026-04-19 00:38 32.40974 -99.84830 1787 ft 23 kts 168°
2026-04-19 00:38 32.40812 -99.84793 1787 ft 23 kts 169°
2026-04-19 00:38 32.40648 -99.84755 1787 ft 23 kts 169°
2026-04-19 00:38 32.40485 -99.84717 1787 ft 24 kts 168°
2026-04-19 00:39 32.40371 -99.84703 1787 ft 14 kts 198°
2026-04-19 00:39 32.40316 -99.84774 1789 ft 11 kts 252°
2026-04-19 00:39 32.40299 -99.84857 1790 ft 9 kts 257°
2026-04-19 00:39 32.40287 -99.84939 1790 ft 9 kts 262°
2026-04-19 00:40 32.40284 -99.85018 1790 ft 9 kts 290°
2026-04-19 00:40 32.40326 -99.85053 1790 ft 0 kts 352°
2026-04-19 00:40 32.40440 -99.85078 1790 ft 41 kts 349°
2026-04-19 00:41 32.40907 -99.85184 1790 ft 93 kts 349°
2026-04-19 00:41 32.41697 -99.85368 1791 ft 137 kts 349°
2026-04-19 00:41 32.42759 -99.85614 1788 ft 174 kts 349°
2026-04-19 00:41 32.44056 -99.85950 2001 ft 185 kts 348°
2026-04-19 00:42 32.45330 -99.86362 2436 ft 182 kts 348°
2026-04-19 00:42 32.46573 -99.86817 2727 ft 186 kts 346°
2026-04-19 00:42 32.47848 -99.87361 3090 ft 199 kts 345°
2026-04-19 00:42 32.49204 -99.87996 3570 ft 211 kts 345°
2026-04-19 00:43 32.50678 -99.88534 3790 ft 222 kts 349°
2026-04-19 00:43 32.52156 -99.89166 3978 ft 230 kts 335°
2026-04-19 00:43 32.53389 -99.90462 4331 ft 243 kts 310°
2026-04-19 00:43 32.54152 -99.92340 4618 ft 260 kts 287°
2026-04-19 00:44 32.54283 -99.94548 4871 ft 267 kts 265°
2026-04-19 00:44 32.53827 -99.96787 5060 ft 271 kts 256°
2026-04-19 00:44 32.53044 -99.98893 5345 ft 272 kts 236°
2026-04-19 00:44 32.51646 -100.00565 5631 ft 274 kts 212°
2026-04-19 00:45 32.49877 -100.01500 5922 ft 274 kts 189°
2026-04-19 00:45 32.47849 -100.01611 6290 ft 283 kts 168°
2026-04-19 00:45 32.45837 -100.01129 6639 ft 289 kts 164°
2026-04-19 00:45 32.43768 -100.00586 6926 ft 294 kts 164°
2026-04-19 00:46 32.41770 -99.99743 7045 ft 294 kts 144°
2026-04-19 00:46 32.40120 -99.98306 7330 ft 289 kts 136°
2026-04-19 00:46 32.38541 -99.96740 7642 ft 292 kts 136°
2026-04-19 00:46 32.36928 -99.95116 7957 ft 294 kts 136°
2026-04-19 00:47 32.35322 -99.93481 8260 ft 296 kts 136°
2026-04-19 00:47 32.33699 -99.91806 8561 ft 298 kts 136°
2026-04-19 00:47 32.32068 -99.90105 8862 ft 300 kts 136°
2026-04-19 00:47 32.30437 -99.88383 9170 ft 303 kts 136°
2026-04-19 00:48 32.28782 -99.86613 9481 ft 305 kts 136°
2026-04-19 00:48 32.27151 -99.84850 9779 ft 308 kts 136°
2026-04-19 00:48 32.25439 -99.83123 10065 ft 311 kts 144°
2026-04-19 00:48 32.23589 -99.81611 10419 ft 320 kts 145°
2026-04-19 00:49 32.21676 -99.80026 10875 ft 332 kts 145°
2026-04-19 00:49 32.19680 -99.78346 11281 ft 339 kts 145°
2026-04-19 00:49 32.17698 -99.76680 11671 ft 342 kts 148°
2026-04-19 00:49 32.15605 -99.75105 12063 ft 342 kts 149°
2026-04-19 00:50 32.13505 -99.73499 12412 ft 346 kts 149°
2026-04-19 00:50 32.11399 -99.71864 12765 ft 351 kts 149°
2026-04-19 00:50 32.09274 -99.70198 13232 ft 353 kts 150°
2026-04-19 00:50 32.07094 -99.68630 13742 ft 353 kts 152°
2026-04-19 00:51 32.04879 -99.67021 14251 ft 355 kts 152°
2026-04-19 00:51 32.02687 -99.65427 14743 ft 358 kts 152°
2026-04-19 00:51 32.00456 -99.63868 15224 ft 358 kts 158°
2026-04-19 00:51 31.98109 -99.62565 15728 ft 359 kts 160°
2026-04-19 00:52 31.95769 -99.61291 16277 ft 359 kts 160°
2026-04-19 00:52 31.93394 -99.59983 16781 ft 361 kts 160°
2026-04-19 00:52 31.91023 -99.58697 17275 ft 363 kts 160°
2026-04-19 00:52 31.88642 -99.57399 17821 ft 364 kts 160°
2026-04-19 00:53 31.86233 -99.56104 18282 ft 367 kts 161°
2026-04-19 00:53 31.83849 -99.54818 18800 ft 368 kts 161°
2026-04-19 00:53 31.81479 -99.53556 19279 ft 369 kts 161°
2026-04-19 00:53 31.79015 -99.52235 19786 ft 371 kts 162°
2026-04-19 00:54 31.76561 -99.50919 20279 ft 373 kts 162°
2026-04-19 00:54 31.74089 -99.49604 20760 ft 375 kts 163°
2026-04-19 00:54 31.71617 -99.48289 21239 ft 376 kts 163°
2026-04-19 00:54 31.69095 -99.46942 21712 ft 377 kts 163°
2026-04-19 00:55 31.66616 -99.45630 22140 ft 379 kts 163°
2026-04-19 00:55 31.64085 -99.44289 22524 ft 382 kts 163°
2026-04-19 00:55 31.61516 -99.42929 22913 ft 385 kts 163°
2026-04-19 00:55 31.58968 -99.41578 23327 ft 387 kts 163°
2026-04-19 00:56 31.56421 -99.40225 23698 ft 389 kts 163°
2026-04-19 00:56 31.53863 -99.38879 24035 ft 392 kts 163°
2026-04-19 00:56 31.51318 -99.37539 24399 ft 394 kts 164°
2026-04-19 00:56 31.48756 -99.36185 24763 ft 395 kts 164°
2026-04-19 00:57 31.46180 -99.34883 25106 ft 395 kts 166°
2026-04-19 00:57 31.43556 -99.33588 25428 ft 397 kts 166°
2026-04-19 00:57 31.40961 -99.32292 25726 ft 399 kts 165°
2026-04-19 00:57 31.38334 -99.30985 26030 ft 401 kts 166°
2026-04-19 00:58 31.35700 -99.29674 26341 ft 402 kts 166°
2026-04-19 00:58 31.33091 -99.28364 26634 ft 404 kts 166°
2026-04-19 00:58 31.30448 -99.27056 26885 ft 406 kts 166°
2026-04-19 00:58 31.27816 -99.25747 27163 ft 407 kts 166°
2026-04-19 00:59 31.25210 -99.24457 27444 ft 407 kts 166°
2026-04-19 00:59 31.22618 -99.23167 27696 ft 409 kts 166°
2026-04-19 00:59 31.19983 -99.21863 27931 ft 410 kts 166°
2026-04-19 00:59 31.17366 -99.20566 28131 ft 412 kts 166°
2026-04-19 01:00 31.14698 -99.19239 28374 ft 414 kts 166°
2026-04-19 01:00 31.12045 -99.17931 28570 ft 415 kts 167°
2026-04-19 01:00 31.09366 -99.16605 28822 ft 416 kts 166°
2026-04-19 01:00 31.06723 -99.15299 29043 ft 419 kts 167°
2026-04-19 01:01 31.04018 -99.13972 29212 ft 425 kts 166°
2026-04-19 01:01 31.01249 -99.12603 29315 ft 431 kts 166°
2026-04-19 01:01 30.95645 -99.09856 29358 ft 447 kts 165°
2026-04-19 01:02 30.89782 -99.06970 29348 ft 465 kts 165°
2026-04-19 01:02 30.83739 -99.04003 29323 ft 483 kts 165°
2026-04-19 01:03 30.77418 -99.00903 29286 ft 498 kts 165°
2026-04-19 01:03 30.71034 -98.97768 29243 ft 498 kts 164°
2026-04-19 01:04 30.64623 -98.94629 29205 ft 496 kts 164°
2026-04-19 01:04 30.58261 -98.91518 29199 ft 496 kts 165°
2026-04-19 01:05 30.51889 -98.88409 29204 ft 497 kts 164°
2026-04-19 01:05 30.45531 -98.85305 29206 ft 496 kts 164°
2026-04-19 01:06 30.39153 -98.82206 29201 ft 497 kts 165°
2026-04-19 01:06 30.32719 -98.79076 29184 ft 498 kts 164°
2026-04-19 01:07 30.26231 -98.75920 29191 ft 496 kts 165°
2026-04-19 01:07 30.19738 -98.72767 29188 ft 496 kts 165°
2026-04-19 01:08 30.13301 -98.69660 29186 ft 497 kts 165°
2026-04-19 01:08 30.06828 -98.66537 29183 ft 499 kts 164°
2026-04-19 01:09 30.00327 -98.63402 29176 ft 499 kts 164°
2026-04-19 01:09 29.93862 -98.60286 29178 ft 498 kts 164°
2026-04-19 01:10 29.87429 -98.57187 29186 ft 497 kts 164°
2026-04-19 01:10 29.81027 -98.54104 29179 ft 497 kts 164°
2026-04-19 01:11 29.74582 -98.51014 29176 ft 499 kts 164°
2026-04-19 01:11 29.68231 -98.47974 29157 ft 497 kts 164°
2026-04-19 01:12 29.61700 -98.45686 29142 ft 478 kts 180°
2026-04-19 01:12 29.55073 -98.44970 29176 ft 483 kts 180°
2026-04-19 01:13 29.48358 -98.44163 29177 ft 484 kts 181°
2026-04-19 01:13 29.41629 -98.43349 29163 ft 483 kts 180°
2026-04-19 01:14 29.34827 -98.42538 29147 ft 482 kts 181°
2026-04-19 01:14 29.28097 -98.41733 29137 ft 483 kts 181°
2026-04-19 01:15 29.21374 -98.40926 29148 ft 483 kts 181°
2026-04-19 01:15 29.14701 -98.40134 29138 ft 483 kts 181°
2026-04-19 01:16 29.08031 -98.39338 29137 ft 481 kts 181°
2026-04-19 01:16 29.01331 -98.38543 29138 ft 483 kts 181°
2026-04-19 01:17 28.94567 -98.37740 29141 ft 484 kts 181°
2026-04-19 01:17 28.87826 -98.36939 29143 ft 483 kts 181°
2026-04-19 01:18 28.81073 -98.36145 29133 ft 481 kts 181°
2026-04-19 01:18 28.74337 -98.35342 29127 ft 481 kts 181°
2026-04-19 01:19 28.67637 -98.34541 29108 ft 481 kts 181°
2026-04-19 01:19 28.60844 -98.33396 29069 ft 493 kts 170°
2026-04-19 01:20 28.57618 -98.31858 29086 ft 506 kts 158°
2026-04-19 01:20 28.54634 -98.29526 29103 ft 519 kts 146°
2026-04-19 01:20 28.52019 -98.26431 29111 ft 530 kts 134°
2026-04-19 01:20 28.49775 -98.22901 29138 ft 532 kts 132°
2026-04-19 01:21 28.45143 -98.16357 29118 ft 526 kts 136°
2026-04-19 01:21 28.40326 -98.09871 29109 ft 525 kts 137°
2026-04-19 01:22 28.35505 -98.03487 29099 ft 525 kts 137°
2026-04-19 01:22 28.30668 -97.97119 29111 ft 526 kts 137°
2026-04-19 01:23 28.25828 -97.90768 29094 ft 525 kts 137°
2026-04-19 01:23 28.20996 -97.84454 29099 ft 525 kts 136°
2026-04-19 01:24 28.16104 -97.78057 29093 ft 524 kts 137°
2026-04-19 01:24 28.11363 -97.71861 29090 ft 521 kts 137°
2026-04-19 01:25 28.06590 -97.65649 29092 ft 524 kts 136°
2026-04-19 01:25 28.01811 -97.59427 29095 ft 525 kts 136°
2026-04-19 01:26 27.96986 -97.53190 29084 ft 525 kts 136°
2026-04-19 01:26 27.91966 -97.47316 29027 ft 512 kts 149°
2026-04-19 01:27 27.88997 -97.45248 29035 ft 500 kts 161°
2026-04-19 01:27 27.85733 -97.43919 29051 ft 489 kts 173°
2026-04-19 01:27 27.82412 -97.43403 29047 ft 479 kts 185°
2026-04-19 01:27 27.79114 -97.43542 29092 ft 474 kts 188°
2026-04-19 01:28 27.72450 -97.43629 29071 ft 482 kts 185°
2026-04-19 01:28 27.65725 -97.43507 29068 ft 485 kts 184°
2026-04-19 01:29 27.58963 -97.43314 29051 ft 484 kts 183°
2026-04-19 01:29 27.52222 -97.43094 29044 ft 484 kts 183°
2026-04-19 01:30 27.45446 -97.42858 29044 ft 484 kts 183°
2026-04-19 01:30 27.38679 -97.42607 29028 ft 483 kts 183°
2026-04-19 01:31 27.31969 -97.42385 29030 ft 484 kts 183°
2026-04-19 01:31 27.25111 -97.42137 29029 ft 484 kts 182°
2026-04-19 01:32 27.18173 -97.41886 29025 ft 485 kts 183°
2026-04-19 01:32 27.11278 -97.41650 29023 ft 487 kts 183°
2026-04-19 01:33 27.04508 -97.41417 29021 ft 486 kts 182°
2026-04-19 01:33 26.97699 -97.41182 29006 ft 484 kts 182°
2026-04-19 01:34 26.90969 -97.40940 29017 ft 485 kts 182°
2026-04-19 01:34 26.84175 -97.40702 29021 ft 487 kts 182°
2026-04-19 01:35 26.77405 -97.40460 28996 ft 487 kts 182°
2026-04-19 01:35 26.70634 -97.40223 29008 ft 486 kts 182°
2026-04-19 01:36 26.63918 -97.39985 29004 ft 487 kts 182°
2026-04-19 01:36 26.57107 -97.39735 28998 ft 488 kts 182°
2026-04-19 01:37 26.50200 -97.39503 28995 ft 487 kts 182°
2026-04-19 01:37 26.43395 -97.39275 29001 ft 485 kts 182°
2026-04-19 01:38 26.36652 -97.39030 29005 ft 485 kts 182°
2026-04-19 01:38 26.29724 -97.38792 29002 ft 485 kts 182°
2026-04-19 01:39 26.22979 -97.38550 28992 ft 486 kts 183°
2026-04-19 01:39 26.16195 -97.38325 28988 ft 487 kts 183°
2026-04-19 01:40 26.09432 -97.38089 28997 ft 487 kts 183°
2026-04-19 01:40 26.02663 -97.37843 28996 ft 487 kts 183°
2026-04-19 01:41 25.95867 -97.37782 28964 ft 482 kts 191°
2026-04-19 01:41 25.92652 -97.38534 28961 ft 473 kts 203°
2026-04-19 01:41 25.89653 -97.40047 28982 ft 467 kts 214°
2026-04-19 01:42 25.87083 -97.42210 29002 ft 463 kts 226°
2026-04-19 01:42 25.84926 -97.44839 29029 ft 463 kts 231°
2026-04-19 01:43 25.77388 -97.51960 28989 ft 468 kts 217°
2026-04-19 01:43 25.74404 -97.53725 28967 ft 475 kts 205°
2026-04-19 01:43 25.71045 -97.54728 28975 ft 482 kts 192°
2026-04-19 01:43 25.67566 -97.54890 28973 ft 492 kts 180°
2026-04-19 01:44 25.64031 -97.54197 28979 ft 499 kts 168°
2026-04-19 01:44 25.57464 -97.51087 28985 ft 501 kts 166°
2026-04-19 01:45 25.50643 -97.49126 28992 ft 491 kts 174°
2026-04-19 01:45 25.43912 -97.47907 28999 ft 492 kts 175°